GEFSNE_500_meanwind_096.txt.gz
Wind_Speed
23 25 26 28 29 31 32 34 34 35 35 35 35 35 36 35 35 34 34 34 33 33 33 32 31 29 28 28 27 26 26 25 25 25 25 24 24 24
20 22 24 26 28 29 31 33 34 34 35 35 36 36 36 36 36 36 35 35 34 33 34 34 33 32 31 30 29 28 28 27 27 26 26 26 26 26
17 19 21 23 24 26 28 31 33 34 34 34 35 35 35 35 37 36 35 36 35 34 34 34 34 34 33 32 31 30 29 28 28 28 28 27 27 26
13 16 18 21 22 24 26 28 30 31 32 33 34 34 34 35 36 37 36 36 36 35 34 34 33 34 33 33 32 31 30 30 30 29 29 29 28 27
10 13 15 18 19 21 23 25 27 29 30 32 32 33 33 34 34 35 35 35 34 35 34 33 33 33 34 34 33 32 32 31 31 30 30 29 29 29
7 9 11 14 16 18 20 21 24 26 28 30 32 32 32 32 33 33 33 33 33 33 33 33 33 33 33 34 34 33 33 32 32 31 31 30 30 30
5 6 9 12 14 16 18 19 22 24 26 28 29 30 31 32 32 32 32 32 32 33 33 32 33 33 32 32 33 32 32 32 32 32 32 31 31 30
5 5 7 9 12 14 15 17 20 22 24 26 28 28 29 31 31 31 31 32 32 33 33 33 33 32 31 31 31 32 33 33 32 32 32 32 31 31
5 5 6 8 10 11 13 15 17 19 21 23 25 27 28 29 30 30 31 31 32 33 33 32 31 31 32 32 32 32 32 32 32 33 33 32 31 31
6 5 5 6 8 10 12 13 15 17 19 21 22 25 26 28 28 28 29 30 30 31 32 32 31 32 32 32 31 31 31 32 32 32 33 33 32 31
8 7 5 5 6 8 10 12 14 17 18 19 21 22 24 26 27 27 28 29 30 30 31 31 31 32 32 32 32 32 32 33 32 31 31 32 31 30
9 8 7 6 6 7 9 10 12 14 16 18 20 21 22 24 26 26 27 28 29 30 30 31 31 32 32 32 32 32 32 32 32 31 30 29 30 29
10 9 8 7 7 7 7 9 10 12 14 16 18 20 21 23 25 26 27 27 28 28 29 29 29 31 32 32 31 31 31 30 30 30 30 29 29 28
11 11 10 9 8 8 7 8 9 10 12 14 15 17 19 21 23 26 26 26 27 27 27 27 28 29 30 31 31 30 30 29 29 29 29 29 29 28
12 12 11 11 10 9 9 9 10 11 11 13 14 16 17 19 21 23 25 26 27 28 27 27 27 28 29 29 30 30 29 29 29 29 29 29 29 28
14 13 12 12 11 10 10 10 10 11 12 13 15 16 17 18 20 22 23 25 26 27 28 28 28 29 29 29 30 30 30 30 29 29 28 29 29 29
16 15 15 14 13 12 12 12 12 12 13 14 15 16 18 19 20 21 22 23 24 25 26 27 27 28 28 29 30 30 30 30 29 29 29 29 29 29
18 18 17 17 16 15 15 14 14 14 15 15 16 17 17 18 20 21 22 23 24 25 26 26 27 27 28 29 30 29 29 30 29 29 29 29 29 29
21 20 20 19 19 19 18 18 18 18 18 18 18 19 19 20 20 21 22 23 24 25 26 26 26 27 28 28 28 28 28 28 29 29 29 29 29 29
23 23 23 22 22 22 22 22 22 21 21 21 21 21 22 22 22 22 23 24 24 25 26 27 27 26 26 26 26 27 27 28 28 29 29 28 29 29
27 27 27 27 26 26 26 25 26 26 26 25 25 25 25 25 25 25 25 26 26 26 27 28 28 28 27 27 27 28 28 28 28 28 28 28 29 29
30 31 31 31 31 31 31 30 30 30 30 30 29 29 28 28 28 28 28 28 29 29 29 29 30 29 29 29 29 29 29 28 28 28 28 29 29 29
34 35 35 35 36 35 35 34 34 34 34 34 34 34 33 32 32 31 31 32 32 32 31 31 32 32 31 31 31 31 30 30 30 30 30 29 30 30

GEFSNE_500_meanwind_102.txt.gz
Wind_Speed
16 18 21 22 24 26 27 27 29 29 31 32 33 34 34 36 37 36 35 35 34 34 33 33 32 32 31 30 29 28 27 26 26 25 25 24 24 24
13 15 18 20 23 24 25 26 27 29 30 32 33 34 35 37 37 37 37 35 36 36 35 35 35 34 33 32 32 31 30 29 28 27 27 26 26 26
10 12 15 17 20 21 23 24 26 28 29 31 33 34 35 36 36 37 37 37 36 36 36 37 36 36 35 34 34 33 32 31 30 29 29 29 28 28
8 10 12 15 16 18 20 22 24 26 28 29 31 33 34 35 36 37 36 37 37 37 37 37 37 36 36 35 35 34 33 32 32 31 30 30 29 29
6 8 10 12 14 17 19 21 21 23 25 27 29 30 32 34 34 36 36 37 37 37 37 37 37 36 36 35 36 36 35 34 33 33 32 32 31 30
6 7 9 10 11 14 17 19 20 21 22 24 26 28 30 32 34 34 36 37 38 38 38 37 38 37 36 36 36 35 36 35 35 34 34 32 32 31
5 6 7 8 10 11 14 17 18 19 20 22 23 25 27 29 31 33 34 35 36 37 38 37 37 37 37 37 37 37 37 36 35 34 34 33 33 32
7 6 6 7 9 11 12 14 15 17 18 20 22 23 24 26 29 30 32 34 34 35 36 37 37 36 37 37 38 38 38 37 35 35 35 34 33 33
8 7 7 7 8 10 11 12 14 16 16 17 19 21 23 25 26 28 30 31 33 34 35 37 37 36 36 36 36 36 36 36 36 36 35 35 34 34
9 9 8 7 7 9 10 11 13 15 16 16 18 20 21 23 24 26 28 29 31 32 34 35 37 37 37 37 37 37 37 37 37 37 37 36 35 35
10 10 9 8 8 8 9 10 11 13 16 17 17 19 20 21 22 24 26 27 29 31 33 34 35 36 37 37 37 38 39 38 38 38 38 37 36 35
11 11 10 9 9 9 9 10 10 12 13 15 16 17 18 19 21 22 23 25 27 29 31 33 34 34 35 36 37 38 38 39 38 38 39 39 38 37
12 12 11 11 10 10 10 10 10 11 12 14 15 16 17 18 20 22 23 24 25 26 28 31 33 35 35 35 36 36 37 37 37 37 38 38 38 38
13 12 12 12 12 11 10 10 11 12 12 14 15 16 17 19 20 21 22 24 24 26 27 30 32 33 34 34 34 35 36 37 38 38 38 38 38 38
14 13 13 12 12 12 12 12 11 12 13 14 15 16 17 19 20 21 22 23 24 26 27 29 30 31 32 33 34 35 36 36 37 38 38 38 38 37
15 14 14 14 14 14 14 14 14 13 14 14 15 17 18 19 20 21 23 24 25 27 28 29 30 32 33 34 34 35 35 35 35 36 37 37 36 36
16 16 16 15 16 16 16 16 15 15 15 16 17 18 19 19 20 22 23 25 26 27 28 29 30 31 31 32 33 33 34 34 34 34 35 35 35 35
18 18 18 18 18 18 18 18 18 18 18 18 18 19 20 21 22 23 24 26 26 27 28 29 30 31 31 32 32 32 33 33 34 35 35 35 35 35
21 21 20 20 20 20 21 21 21 21 22 22 22 22 23 23 24 25 25 27 27 28 29 30 31 32 32 32 32 32 33 33 34 34 35 35 35 34
24 24 24 24 23 23 24 24 24 25 25 26 26 26 26 27 27 28 28 28 29 29 30 31 32 33 33 33 33 33 34 34 34 34 35 35 35 35
26 26 27 27 27 27 27 27 27 28 28 29 29 30 31 31 31 31 31 32 32 32 32 33 33 34 35 35 35 34 35 35 35 35 35 36 36 36
29 29 29 29 30 30 30 30 31 31 31 32 32 33 34 35 35 35 35 35 35 36 36 37 36 37 37 37 37 36 36 37 36 36 36 36 36 36
32 32 32 32 33 33 33 34 34 35 35 36 36 37 37 38 38 39 40 40 40 40 40 40 41 40 40 39 39 39 39 39 38 38 38 38 38 37

GEFSNE_500_meanwind_108.txt.gz
Wind_Speed
12 14 15 17 19 21 23 25 26 28 28 30 31 32 33 34 34 34 34 34 34 35 35 34 33 32 31 30 29 29 28 28 28 28 27 26 25 25
10 12 14 15 17 19 21 23 25 27 27 29 30 31 33 33 34 34 34 35 35 34 35 36 35 35 34 33 31 31 30 30 30 29 28 28 27 27
7 9 11 13 15 17 19 22 23 25 26 26 28 30 32 33 33 34 33 34 34 35 35 37 37 36 36 35 34 33 32 32 31 30 30 29 29 28
6 7 9 11 12 14 17 19 21 22 24 24 26 27 29 30 31 33 33 34 35 36 36 36 37 37 37 37 36 35 34 34 33 33 32 31 31 31
5 6 8 9 10 12 15 16 18 20 21 22 23 24 26 27 30 31 33 33 34 35 36 36 37 38 38 38 38 37 36 36 35 34 34 34 33 32
4 5 7 8 10 11 13 15 16 18 19 21 21 23 24 25 27 29 31 32 33 33 34 36 37 39 39 39 39 39 39 38 37 36 36 36 35 34
4 5 6 8 9 10 12 14 15 17 18 20 20 21 23 24 25 27 29 31 32 32 34 36 37 38 39 40 40 40 40 40 39 39 38 37 36 36
4 4 5 7 9 10 11 13 14 16 17 19 20 21 22 23 23 24 26 28 29 31 32 33 35 37 39 40 40 40 41 41 41 40 39 38 38 37
6 5 5 6 7 9 10 11 12 14 16 18 19 20 21 22 23 23 25 26 28 29 30 31 33 34 36 37 39 40 40 40 40 40 39 40 39 39
7 6 6 6 7 8 9 11 12 13 14 16 18 19 20 21 21 22 23 25 26 28 30 32 33 34 35 36 37 39 40 41 41 42 42 41 41 40
8 8 8 7 7 8 9 10 12 13 14 15 17 19 19 20 21 22 22 23 24 26 28 30 32 33 34 35 36 37 38 40 40 40 40 42 42 42
9 9 9 8 8 8 9 10 11 12 14 15 17 18 19 20 21 21 22 23 24 25 27 28 29 31 32 34 35 36 38 39 40 40 41 42 42 43
11 10 10 10 10 10 10 11 12 12 13 14 15 17 18 19 20 22 22 23 24 25 26 27 28 30 31 32 33 35 36 37 39 39 40 41 42 42
12 11 11 11 11 11 11 12 12 13 13 14 15 17 18 19 20 21 23 24 25 26 26 27 28 29 30 31 32 34 35 36 37 38 39 40 41 42
14 13 13 13 13 13 13 14 14 14 15 15 16 17 18 19 20 21 23 24 25 26 27 27 28 29 30 30 31 33 34 35 36 37 38 39 40 40
16 15 15 15 15 15 15 15 15 16 16 17 18 18 19 20 21 22 23 25 25 26 27 28 29 29 30 31 32 32 34 35 36 37 37 38 39 40
18 17 17 17 18 18 18 18 18 18 19 19 19 20 21 22 22 23 24 25 26 27 28 29 30 31 32 32 33 34 35 36 37 37 37 38 39 39
20 20 20 20 20 20 20 20 21 21 21 21 22 22 22 23 24 25 26 27 27 28 30 31 32 33 33 34 34 35 35 36 37 38 38 38 39 40
22 22 22 23 23 23 23 23 23 24 24 24 25 25 25 26 26 27 27 28 29 30 31 32 33 34 35 35 36 37 38 37 38 39 39 40 39 39
24 24 24 25 25 25 25 25 26 26 26 27 27 28 28 29 29 30 30 31 31 32 32 33 34 35 36 37 37 38 39 39 39 40 40 40 40 40
27 27 27 27 28 28 28 28 28 28 28 29 29 30 31 31 32 33 33 34 34 35 35 35 36 37 38 39 39 39 40 40 41 41 41 41 42 42
30 30 30 30 30 31 31 31 31 31 31 31 32 32 33 34 35 35 36 37 38 38 38 39 39 40 40 41 42 42 42 43 43 44 44 44 43 43
32 32 32 32 33 33 33 33 33 33 34 34 34 35 36 37 37 38 39 40 40 41 41 42 42 43 43 44 44 44 45 45 45 45 46 46 46 46

GEFSNE_500_meanwind_114.txt.gz
Wind_Speed
8 9 11 12 14 16 18 20 21 22 23 25 27 27 27 28 29 30 29 30 31 31 31 30 30 30 31 30 29 28 27 26 26 25 24 23 23 23
7 8 10 11 13 14 15 17 19 20 22 24 26 27 27 27 28 30 30 30 31 32 31 31 31 31 31 32 31 31 31 30 29 27 26 26 25 25
6 8 9 11 12 13 13 15 16 18 20 22 24 25 26 27 28 29 30 31 30 32 33 32 33 33 33 32 33 32 32 32 31 30 29 27 27 27
6 7 8 10 11 11 12 13 14 15 16 18 21 23 24 24 27 29 29 30 30 31 33 33 33 33 33 33 33 33 33 33 33 32 32 31 30 29
6 6 7 8 9 10 11 12 13 14 15 16 18 21 22 22 24 26 28 29 30 30 31 32 33 33 33 33 33 34 34 34 34 34 34 33 32 31
6 5 5 6 7 9 10 11 12 14 15 15 17 18 20 21 22 24 26 27 28 29 31 32 33 33 34 35 34 35 35 36 36 35 35 35 35 34
6 5 5 6 7 8 10 11 12 13 15 16 17 18 18 20 21 22 24 26 27 28 29 31 32 33 34 35 35 36 36 36 36 36 36 36 36 37
8 6 6 6 7 9 10 11 12 13 14 15 16 17 17 18 20 21 22 24 25 27 29 30 30 31 32 34 35 36 36 36 36 37 37 37 38 38
9 8 7 7 8 9 10 11 12 13 14 15 16 17 17 18 19 21 22 23 25 26 26 28 29 30 31 32 33 34 35 36 37 37 37 38 38 38
11 10 9 9 8 9 10 11 12 13 13 14 15 16 17 19 19 19 20 22 23 25 25 26 27 28 28 30 32 33 34 35 35 36 36 37 38 39
12 11 11 10 10 9 10 11 12 13 13 14 15 16 17 18 19 20 20 21 22 24 26 26 27 28 28 29 31 32 33 34 34 35 36 37 37 37
13 12 12 11 10 10 10 11 12 13 13 14 15 16 18 18 19 20 21 22 23 24 25 26 27 28 29 30 30 32 33 34 34 34 35 36 37 38
14 14 13 13 12 12 12 12 12 13 14 15 16 17 18 19 19 20 21 22 23 24 25 25 26 27 28 29 30 31 32 33 34 35 36 36 37 38
16 15 15 15 14 14 14 13 14 14 15 15 16 17 18 19 20 21 22 23 23 24 25 26 26 27 28 29 30 32 33 34 34 35 36 36 37 38
18 17 16 16 16 16 16 15 15 15 16 16 17 18 18 19 20 21 22 23 24 25 26 27 27 28 29 29 30 32 33 33 34 35 35 36 36 37
19 19 18 18 17 17 17 17 17 18 18 18 19 19 20 20 21 22 23 24 25 26 27 27 28 28 29 30 31 31 33 34 34 35 36 36 37 37
20 20 20 20 20 19 19 19 20 20 20 21 21 22 22 22 23 24 24 25 26 26 27 28 29 29 30 31 32 32 33 34 35 36 36 36 37 37
22 22 22 21 21 22 22 22 22 22 23 23 24 24 24 25 25 25 26 26 27 27 28 29 30 30 31 32 33 34 35 35 37 38 38 38 39 40
24 24 24 24 24 24 24 24 24 25 25 25 26 27 27 28 28 28 28 28 29 29 30 30 31 32 32 33 34 35 36 37 38 39 39 40 40 41
27 27 26 26 26 26 26 26 27 27 27 28 28 28 29 29 30 30 30 30 31 31 32 33 33 34 35 35 35 37 38 39 40 41 42 43 43 43
29 29 29 28 28 28 29 29 29 29 30 30 30 31 31 31 31 31 32 32 33 33 34 35 36 37 38 38 38 38 39 41 42 43 44 44 44 45
31 31 31 31 31 31 31 31 31 31 32 32 32 32 32 32 33 33 34 34 35 35 36 37 38 39 40 40 41 41 41 42 43 44 44 45 45 45
33 33 33 33 33 33 33 33 33 33 33 33 33 34 34 34 35 35 36 36 37 37 38 39 40 41 41 42 42 43 43 43 43 44 44 46 46 47